Find Starlink 30911

NORAD ID: 58374 Int'l Des: 2023-178 Owner: SPXS Country: US Constellation: starlink operational
LEOCIRCULAR

Live Position

Loading 3D Globe...

About Starlink 30911

Description loading...

Upcoming Passes

Passes for default location (London). Set your location on the main map for personalized predictions.

Altitude History

Loading altitude history...

Two-Line Element Set

1 58374U 23178A 26140.01159417 .00002493 00000-0 84928-4 0 9992
2 58374 53.1606 28.8985 0000934 116.4449 243.6650 15.34378868140818
Epoch: May 20, 2026 • Age: 8 hours

Current Status

Altitude 474.7 km
Velocity 7.63 km/s
Sub-Earth Point -35.57°S, 1.16°W
Launch Date Nov 20, 2023
Age 2.4 years
Type internet

Technical Details

Classification Payload
Mass 730.00 kg
Dry Mass 700.00 kg
Total Mass 730.00 kg
Length 0.30 m
Diameter 4.10 m
Span 29.00 m
Shape Box + pan
Manufacturer SPXS
Bus Type Starlink V2M
Phase Status In Orbit
Owner/State SPXS/US

Most Searched